sat.trackr.live / text

‹ back to catalog

SATORO-T3

NORAD 64589 · 2025-135BP

PAYLOAD ACTIVE UNKNOWN

§ Identity

Operator
Country
ROC
Launch date
2025-06-23
Launch site
AFWTR
Launch vehicle
Mass (kg)
RCS (m²)

External: N2YO · Heavens-Above · Gunter

§ Orbital elements

Epoch: 2026-09-21T20:12:49.226688Z

Period
96.34 min
Inclination
97.7786°
Eccentricity
0.0005108
Mean motion
14.94746702 rev/d
Perigee alt
579.6 km
Apogee alt
586.7 km
Semi-major
6,961.3 km
B*
1.9777e-4
RAAN
18.4468°
Arg perigee
23.5229°
Mean anomaly
336.6224°
Rev number
6,834

§ Raw data

SATORO-T31 64589U 25135BP  26264.84223642  .00002091  00000+0  19777-3 0  99942 64589  97.7786  18.4468 0005108  23.5229 336.6224 14.94746702 68347

JSON: /api/v1/satellites/64589 · /tle

For live sub-satellite position, see the globe view (requires WebGL).

§ Visibility from observer

Set your observer location to see the next 7 days of passes ≥ 10°. The values pass through the URL so the page stays shareable.

No JS? Fill the form by hand. The geolocation button needs JavaScript.

§ Radio — SatNOGS DB

ModeDescriptionDownlinkUplink
FM Mode S - Transmitter 2.280 GHz
BPSK Mode U - Transmitter 401.970 MHz
BPSK S-band telemetry 2.270 GHz

3 transmitters · refreshed weekly from db.satnogs.org